DELTA 1 DEB

Satellite information

Favourite Embed

Satellite Type and Status

DEBRISIN ORBIT

Key statistics

Satellite DELTA 1 DEB at a glance.

Uptime

17353

Days in orbit

Revolutions

≈ 14.3

Per day

Orbit

SSO

Sun Synchronous Orbit

Inclination

98.8

Latest

Satellite identification and parameters

Extended collection of information and parameters for DELTA 1 DEB.

Object identification

Identified? True

Debris? True

Object name: DELTA 1 DEB

International designator: 1978-026JC

Object number (NORAD): 37641

Object ID (CCSDS): 37641

Country: UNITED STATES OF AMERICA (US)

Current information (Y/N): Y

RCS size: SMALL

Orbital parameters

Period: 100.557 minutes

Inclination: 98.7986 deg

SMA: 7163.133 km

Apoapsis: 836.35 km

Periapsis: 733.647 km

RAAN: 271.1364 deg

Eccentricy: 0.00716884

Argument of periapsis: 183.1714 deg

Mean anomaly: 176.9024 deg

Mean motion: 14.32017109 rev/day

Mean motion (dot): 0.00001859 rev/day2

B* drag term: 0.00068948471 1/REarth

Two-line elements (TLE)

Creation date: Sept. 5, 2025, 4:46 a.m.

Reference frame: TEME

Reference center: EARTH

Epoch: Sept. 4, 2025, 7:30 a.m. UTC

TLE line 0: 0 DELTA 1 DEB

TLE line 1: 1 37641U 78026JC 25247.31281409 .00001859 00000-0 68948-3 0 9993

TLE line 2: 2 37641 98.7986 271.1364 0071688 183.1714 176.9024 14.32017109314486

Live tracking on map

Real-time ground track for satellite DELTA 1 DEB.

In-orbit conjunctions

A list of the most updated potential collisions computed for object DELTA 1 DEB.

Target Orbit TCA Probability of collision Miss distance Type
FENGYUN 1C DEB SSO 2025-08-16 12:03:16 0.0002079475 289.0 (m) DEBRIS
DMSP 5D-2 F13 DEB SSO 2024-11-09 10:50:26 0.0001248195 842.0 (m) DEBRIS
THOR BURNER 2 R/B SSO 2024-07-24 00:43:02 0.0002954473 159.0 (m) ROCKET BODY

Associated space launch

Earth observation satellite

DELTA 1 DEB was lifted into orbit during the mission ‘Delta 2910 | Landsat 3’, on board a Delta 2910 space rocket.

The launch took place on March 5, 1978, 5:54 p.m. from Space Launch Complex 2W.

For more information about the launch, click the button.

Launch to space Delta 2910 | Landsat 3
Delta 2910 | Landsat 3

Agency: N/A

Status: Launch Successful

Launch date: March 5, 1978, 5:54 p.m. UTC

Rocket: Delta 2910

Launch pad: Space Launch Complex 2W

Location: Vandenberg SFB, CA, USA

...

Latest news about this satellite

There are no fresh news available about this satellite. Check back as we update our databases every day.


Newsletter sign-up

Weekly statistics, charts and insights to help you stay on top of the space industry.